{"data":{"norad_id":68834,"epoch":"2026-09-20T04:48:00.430272Z","epoch_age_seconds":82004,"freshness":"FRESH","line1":"1 68834U 26091D   26263.20000498  .00004282  00000+0  21407-3 0  9991","line2":"2 68834  55.0043 326.4816 0013626 339.1730  20.8733 15.19442314 22643","mean_motion":15.19442314,"eccentricity":0.0013626,"inclination_deg":55.0043,"raan_deg":326.4816,"arg_perigee_deg":339.173,"mean_anomaly_deg":20.8733,"bstar":0.00021407,"rev_number":2264,"period_min":94.771613685625,"perigee_km":498.14254065589,"apogee_km":516.90734658464,"semimajor_km":6885.6619436203,"source":"CELESTRAK","updated_at":"2026-09-20T09:00:24.496541Z"}}